owner,sensor,date,latitude,longitude,vertical_datum,direction_of_sea_water_velocity,sea_water_speed,upward_sea_water_velocity,qcFlag 
TABS,ioos:station:wmo:42043:1,2009-01-01T00:00:00Z,28.9818,-94.9186,2.0,249.639876,23.91398754,-99999.0,'11111222,11111222,99999999' 
TABS,ioos:station:wmo:42043:1,2009-01-01T00:30:00Z,28.9818,-94.9186,2.0,245.6978159,24.68755962,-99999.0,'11111222,11111222,99999999' 
TABS,ioos:station:wmo:42043:1,2009-01-01T01:00:00Z,28.9818,-94.9186,2.0,246.514793,24.96822981,-99999.0,'11111222,11111222,99999999' 
TABS,ioos:station:wmo:42043:1,2009-01-01T01:30:00Z,28.9818,-94.9186,2.0,242.8650089,25.19278667,-99999.0,'11111222,11111222,99999999' 
TABS,ioos:station:wmo:42043:1,2009-01-01T02:00:00Z,28.9818,-94.9186,2.0,243.8538422,26.89167343,-99999.0,'11111222,11111222,99999999' 
TABS,ioos:station:wmo:42043:1,2009-01-01T02:30:00Z,28.9818,-94.9186,2.0,247.4771327,26.70696164,-99999.0,'11111222,11111222,99999999' 
TABS,ioos:station:wmo:42043:1,2009-01-01T03:00:00Z,28.9818,-94.9186,2.0,244.0042723,28.33685409,-99999.0,'11111222,11111222,99999999' 
TABS,ioos:station:wmo:42043:1,2009-01-01T03:30:00Z,28.9818,-94.9186,2.0,246.04109,29.50189824,-99999.0,'11111222,11111222,99999999' 
TABS,ioos:station:wmo:42043:1,2009-01-01T04:00:00Z,28.9818,-94.9186,2.0,245.1790958,28.20541792,-99999.0,'11111222,11111222,99999999' 
TABS,ioos:station:wmo:42043:1,2009-01-01T04:30:00Z,28.9818,-94.9186,2.0,242.3921044,27.03853731,-99999.0,'11111222,11111222,99999999' 
TABS,ioos:station:wmo:42043:1,2009-01-01T05:00:00Z,28.9818,-94.9186,2.0,233.2818323,27.8820982,-99999.0,'11111222,11111222,99999999' 
TABS,ioos:station:wmo:42043:1,2009-01-01T05:30:00Z,28.9818,-94.9186,2.0,239.7165949,23.24141347,-99999.0,'11111222,11111222,99999999' 
TABS,ioos:station:wmo:42043:1,2009-01-01T06:00:00Z,28.9818,-94.9186,2.0,242.1102388,26.50895886,-99999.0,'11111222,11111222,99999999' 
TABS,ioos:station:wmo:42043:1,2009-01-01T06:30:00Z,28.9818,-94.9186,2.0,245.8430928,24.582687,-99999.0,'11111222,11111222,99999999' 
TABS,ioos:station:wmo:42043:1,2009-01-01T07:00:00Z,28.9818,-94.9186,2.0,242.7225285,22.67100792,-99999.0,'11111222,11111222,99999999' 
TABS,ioos:station:wmo:42043:1,2009-01-01T07:30:00Z,28.9818,-94.9186,2.0,253.3511891,18.35962146,-99999.0,'11111222,11111222,99999999' 
TABS,ioos:station:wmo:42043:1,2009-01-01T08:00:00Z,28.9818,-94.9186,2.0,244.3505761,15.38611387,-99999.0,'11111222,11111222,99999999' 
TABS,ioos:station:wmo:42043:1,2009-01-01T08:30:00Z,28.9818,-94.9186,2.0,251.4704759,15.38766389,-99999.0,'11111222,11111222,99999999' 
TABS,ioos:station:wmo:42043:1,2009-01-01T09:00:00Z,28.9818,-94.9186,2.0,258.1481912,17.43158054,-99999.0,'11111222,11111222,99999999' 
TABS,ioos:station:wmo:42043:1,2009-01-01T09:30:00Z,28.9818,-94.9186,2.0,248.3722776,20.78311815,-99999.0,'11111222,11111222,99999999' 
TABS,ioos:station:wmo:42043:1,2009-01-01T10:00:00Z,28.9818,-94.9186,2.0,247.5970865,19.46937082,-99999.0,'11111222,11111222,99999999' 
TABS,ioos:station:wmo:42043:1,2009-01-01T10:30:00Z,28.9818,-94.9186,2.0,243.4219224,20.22747142,-99999.0,'11111222,11111222,99999999' 
TABS,ioos:station:wmo:42043:1,2009-01-01T11:00:00Z,28.9818,-94.9186,2.0,251.1728629,24.04652158,-99999.0,'11111222,11111222,99999999' 
TABS,ioos:station:wmo:42043:1,2009-01-01T11:30:00Z,28.9818,-94.9186,2.0,242.5493813,26.92099924,-99999.0,'11111222,11111222,99999999' 
TABS,ioos:station:wmo:42043:1,2009-01-01T12:00:00Z,28.9818,-94.9186,2.0,239.9172024,32.00027656,-99999.0,'11111222,11111222,99999999' 
TABS,ioos:station:wmo:42043:1,2009-01-01T12:30:00Z,28.9818,-94.9186,2.0,238.070201,34.39378141,-99999.0,'11111222,11111222,99999999' 
TABS,ioos:station:wmo:42043:1,2009-01-01T13:00:00Z,28.9818,-94.9186,2.0,237.648848,33.58240313,-99999.0,'11111222,11111222,99999999' 
TABS,ioos:station:wmo:42043:1,2009-01-01T13:30:00Z,28.9818,-94.9186,2.0,235.7578645,33.41114185,-99999.0,'11111222,11111222,99999999' 
TABS,ioos:station:wmo:42043:1,2009-01-01T14:00:00Z,28.9818,-94.9186,2.0,238.8433487,34.19186599,-99999.0,'11111222,11111222,99999999' 
TABS,ioos:station:wmo:42043:1,2009-01-01T14:30:00Z,28.9818,-94.9186,2.0,235.8446994,46.48818022,-99999.0,'11111222,11111222,99999999' 
TABS,ioos:station:wmo:42043:1,2009-01-01T15:00:00Z,28.9818,-94.9186,2.0,235.8395989,46.32179832,-99999.0,'11111222,11111222,99999999' 
TABS,ioos:station:wmo:42043:1,2009-01-01T15:30:00Z,28.9818,-94.9186,2.0,234.3546479,42.19564196,-99999.0,'11111222,11111222,99999999' 
TABS,ioos:station:wmo:42043:1,2009-01-01T16:00:00Z,28.9818,-94.9186,2.0,229.2248174,37.23845324,-99999.0,'11111222,11111222,99999999' 
TABS,ioos:station:wmo:42043:1,2009-01-01T16:30:00Z,28.9818,-94.9186,2.0,221.3643968,35.57541426,-99999.0,'11111222,11111222,99999999' 
TABS,ioos:station:wmo:42043:1,2009-01-01T17:00:00Z,28.9818,-94.9186,2.0,224.5869686,33.37630597,-99999.0,'11111222,11111222,99999999' 
TABS,ioos:station:wmo:42043:1,2009-01-01T17:30:00Z,28.9818,-94.9186,2.0,224.2897561,26.82261919,-99999.0,'11111222,11111222,99999999' 
TABS,ioos:station:wmo:42043:1,2009-01-01T18:00:00Z,28.9818,-94.9186,2.0,237.8783336,21.47772102,-99999.0,'11111222,11111222,99999999' 
TABS,ioos:station:wmo:42043:1,2009-01-01T18:30:00Z,28.9818,-94.9186,2.0,240.8844418,20.20275724,-99999.0,'11111222,11111222,99999999' 
TABS,ioos:station:wmo:42043:1,2009-01-01T19:00:00Z,28.9818,-94.9186,2.0,238.1316476,19.45207701,-99999.0,'11111222,11111222,99999999' 
TABS,ioos:station:wmo:42043:1,2009-01-01T19:30:00Z,28.9818,-94.9186,2.0,246.1097391,17.63048496,-99999.0,'11111222,11111222,99999999' 
TABS,ioos:station:wmo:42043:1,2009-01-01T20:00:00Z,28.9818,-94.9186,2.0,249.4845725,14.72378009,-99999.0,'11111222,11111222,99999999' 
TABS,ioos:station:wmo:42043:1,2009-01-01T20:30:00Z,28.9818,-94.9186,2.0,251.4133648,14.36943979,-99999.0,'11111222,11111222,99999999' 
TABS,ioos:station:wmo:42043:1,2009-01-01T21:00:00Z,28.9818,-94.9186,2.0,248.4388999,23.42938753,-99999.0,'11111222,11111222,99999999' 
TABS,ioos:station:wmo:42043:1,2009-01-01T21:30:00Z,28.9818,-94.9186,2.0,248.5298437,22.45837038,-99999.0,'11111222,11111222,99999999' 
TABS,ioos:station:wmo:42043:1,2009-01-01T22:00:00Z,28.9818,-94.9186,2.0,258.9952623,19.48833754,-99999.0,'11111222,11111222,99999999' 
TABS,ioos:station:wmo:42043:1,2009-01-01T22:30:00Z,28.9818,-94.9186,2.0,258.8133091,17.2680659,-99999.0,'11111222,11111222,99999999' 
TABS,ioos:station:wmo:42043:1,2009-01-01T23:00:00Z,28.9818,-94.9186,2.0,250.9411982,13.65868588,-99999.0,'11111222,11111222,99999999' 
TABS,ioos:station:wmo:42043:1,2009-01-01T23:30:00Z,28.9818,-94.9186,2.0,254.2484423,12.56169575,-99999.0,'11111222,11111222,99999999' 
TABS,ioos:station:wmo:42043:1,2009-01-02T00:00:00Z,28.9818,-94.9186,2.0,247.2843018,13.38848012,-99999.0,'11111222,11111222,99999999' 
TABS,ioos:station:wmo:42043:1,2009-01-02T00:30:00Z,28.9818,-94.9186,2.0,257.7834614,13.51605342,-99999.0,'11111222,11111222,99999999' 
TABS,ioos:station:wmo:42043:1,2009-01-02T01:00:00Z,28.9818,-94.9186,2.0,263.1469127,11.48202508,-99999.0,'11111222,11111222,99999999' 
TABS,ioos:station:wmo:42043:1,2009-01-02T01:30:00Z,28.9818,-94.9186,2.0,256.0342204,11.76783752,-99999.0,'11111222,11111222,99999999' 
TABS,ioos:station:wmo:42043:1,2009-01-02T02:00:00Z,28.9818,-94.9186,2.0,252.4071957,14.62395295,-99999.0,'11111222,11111222,99999999' 
TABS,ioos:station:wmo:42043:1,2009-01-02T02:30:00Z,28.9818,-94.9186,2.0,248.4213913,14.30236344,-99999.0,'11111222,11111222,99999999' 
TABS,ioos:station:wmo:42043:1,2009-01-02T03:00:00Z,28.9818,-94.9186,2.0,251.0267635,13.81027516,-99999.0,'11111222,11111222,99999999' 
TABS,ioos:station:wmo:42043:1,2009-01-02T03:30:00Z,28.9818,-94.9186,2.0,247.5754663,14.86393286,-99999.0,'11111222,11111222,99999999' 
TABS,ioos:station:wmo:42043:1,2009-01-02T04:00:00Z,28.9818,-94.9186,2.0,253.0790942,13.64050586,-99999.0,'11111222,11111222,99999999' 
TABS,ioos:station:wmo:42043:1,2009-01-02T04:30:00Z,28.9818,-94.9186,2.0,254.0886234,16.01349743,-99999.0,'11111222,11111222,99999999' 
TABS,ioos:station:wmo:42043:1,2009-01-02T05:00:00Z,28.9818,-94.9186,2.0,254.959589,14.95219047,-99999.0,'11111222,11111222,99999999' 
TABS,ioos:station:wmo:42043:1,2009-01-02T05:30:00Z,28.9818,-94.9186,2.0,246.4920463,12.66075037,-99999.0,'11111222,11111222,99999999' 
TABS,ioos:station:wmo:42043:1,2009-01-02T06:00:00Z,28.9818,-94.9186,2.0,253.327334,10.17786323,-99999.0,'11111222,11111222,99999999' 
TABS,ioos:station:wmo:42043:1,2009-01-02T06:30:00Z,28.9818,-94.9186,2.0,233.781454,10.37467108,-99999.0,'11111222,11111222,99999999' 
TABS,ioos:station:wmo:42043:1,2009-01-02T07:00:00Z,28.9818,-94.9186,2.0,238.6654266,7.691872334,-99999.0,'11133222,11111222,99999999' 
TABS,ioos:station:wmo:42043:1,2009-01-02T07:30:00Z,28.9818,-94.9186,2.0,236.4100648,6.326365465,-99999.0,'11133222,11111222,99999999' 
TABS,ioos:station:wmo:42043:1,2009-01-02T08:00:00Z,28.9818,-94.9186,2.0,225.3796233,10.66340471,-99999.0,'11111222,11111222,99999999' 
TABS,ioos:station:wmo:42043:1,2009-01-02T08:30:00Z,28.9818,-94.9186,2.0,237.9296698,11.28156461,-99999.0,'11111222,11111222,99999999' 
TABS,ioos:station:wmo:42043:1,2009-01-02T09:00:00Z,28.9818,-94.9186,2.0,243.3405472,10.89861,-99999.0,'11111222,11111222,99999999' 
TABS,ioos:station:wmo:42043:1,2009-01-02T09:30:00Z,28.9818,-94.9186,2.0,248.0565636,11.2661706,-99999.0,'11111222,11111222,99999999' 
TABS,ioos:station:wmo:42043:1,2009-01-02T10:00:00Z,28.9818,-94.9186,2.0,244.9273937,8.754941462,-99999.0,'11133222,11111222,99999999' 
TABS,ioos:station:wmo:42043:1,2009-01-02T10:30:00Z,28.9818,-94.9186,2.0,245.1859784,10.389153,-99999.0,'11111222,11111222,99999999' 
TABS,ioos:station:wmo:42043:1,2009-01-02T11:00:00Z,28.9818,-94.9186,2.0,239.8601523,8.464331043,-99999.0,'11133222,11111222,99999999' 
TABS,ioos:station:wmo:42043:1,2009-01-02T11:30:00Z,28.9818,-94.9186,2.0,240.9824056,11.91573749,-99999.0,'11111222,11111222,99999999' 
TABS,ioos:station:wmo:42043:1,2009-01-02T12:00:00Z,28.9818,-94.9186,2.0,233.0569651,7.870006353,-99999.0,'11133222,11111222,99999999' 
TABS,ioos:station:wmo:42043:1,2009-01-02T12:30:00Z,28.9818,-94.9186,2.0,232.0708474,7.467275273,-99999.0,'11133222,11111222,99999999' 
TABS,ioos:station:wmo:42043:1,2009-01-02T13:00:00Z,28.9818,-94.9186,2.0,225.119466,10.14700448,-99999.0,'11111222,11111222,99999999' 
TABS,ioos:station:wmo:42043:1,2009-01-02T13:30:00Z,28.9818,-94.9186,2.0,250.3256696,21.05936846,-99999.0,'11111222,11111222,99999999' 
TABS,ioos:station:wmo:42043:1,2009-01-02T14:00:00Z,28.9818,-94.9186,2.0,252.7185536,28.10886159,-99999.0,'11111222,11111222,99999999' 
TABS,ioos:station:wmo:42043:1,2009-01-02T14:30:00Z,28.9818,-94.9186,2.0,253.9908134,32.27151066,-99999.0,'11111222,11111222,99999999' 
TABS,ioos:station:wmo:42043:1,2009-01-02T15:00:00Z,28.9818,-94.9186,2.0,258.2014513,31.30127154,-99999.0,'11111222,11111222,99999999' 
TABS,ioos:station:wmo:42043:1,2009-01-02T15:30:00Z,28.9818,-94.9186,2.0,257.7786069,31.69833592,-99999.0,'11111222,11111222,99999999' 
TABS,ioos:station:wmo:42043:1,2009-01-02T16:00:00Z,28.9818,-94.9186,2.0,254.8173397,31.04349368,-99999.0,'11111222,11111222,99999999' 
TABS,ioos:station:wmo:42043:1,2009-01-02T16:30:00Z,28.9818,-94.9186,2.0,255.8177934,29.59186713,-99999.0,'11111222,11111222,99999999' 
TABS,ioos:station:wmo:42043:1,2009-01-02T17:00:00Z,28.9818,-94.9186,2.0,257.8398976,27.10819249,-99999.0,'11111222,11111222,99999999' 
TABS,ioos:station:wmo:42043:1,2009-01-02T17:30:00Z,28.9818,-94.9186,2.0,259.5018428,26.56463815,-99999.0,'11111222,11111222,99999999' 
TABS,ioos:station:wmo:42043:1,2009-01-02T18:00:00Z,28.9818,-94.9186,2.0,259.5936713,25.85524705,-99999.0,'11111222,11111222,99999999' 
TABS,ioos:station:wmo:42043:1,2009-01-02T18:30:00Z,28.9818,-94.9186,2.0,264.1487963,25.21133277,-99999.0,'11111222,11111222,99999999' 
TABS,ioos:station:wmo:42043:1,2009-01-02T19:00:00Z,28.9818,-94.9186,2.0,267.2350774,24.25823159,-99999.0,'11111222,11111222,99999999' 
TABS,ioos:station:wmo:42043:1,2009-01-02T19:30:00Z,28.9818,-94.9186,2.0,268.9804502,23.61373541,-99999.0,'11111222,11111222,99999999' 
TABS,ioos:station:wmo:42043:1,2009-01-02T20:00:00Z,28.9818,-94.9186,2.0,266.8831992,23.54481896,-99999.0,'11111222,11111222,99999999' 
TABS,ioos:station:wmo:42043:1,2009-01-02T20:30:00Z,28.9818,-94.9186,2.0,274.8723278,24.60891099,-99999.0,'11111222,11111222,99999999' 
TABS,ioos:station:wmo:42043:1,2009-01-02T21:00:00Z,28.9818,-94.9186,2.0,275.9911662,21.36668903,-99999.0,'11111222,11111222,99999999' 
TABS,ioos:station:wmo:42043:1,2009-01-02T21:30:00Z,28.9818,-94.9186,2.0,279.9527269,23.26001935,-99999.0,'11111222,11111222,99999999' 
TABS,ioos:station:wmo:42043:1,2009-01-02T22:00:00Z,28.9818,-94.9186,2.0,280.7356499,21.31301246,-99999.0,'11111222,11111222,99999999' 
TABS,ioos:station:wmo:42043:1,2009-01-02T22:30:00Z,28.9818,-94.9186,2.0,282.8796103,22.70111231,-99999.0,'11111222,11111222,99999999' 
TABS,ioos:station:wmo:42043:1,2009-01-02T23:00:00Z,28.9818,-94.9186,2.0,288.1977328,20.58976688,-99999.0,'11111222,11111222,99999999' 
TABS,ioos:station:wmo:42043:1,2009-01-02T23:30:00Z,28.9818,-94.9186,2.0,284.3017878,19.39093087,-99999.0,'11111222,11111222,99999999' 
TABS,ioos:station:wmo:42043:1,2009-01-03T00:00:00Z,28.9818,-94.9186,2.0,288.2914885,18.89466856,-99999.0,'11111222,11111222,99999999' 
TABS,ioos:station:wmo:42043:1,2009-01-03T00:30:00Z,28.9818,-94.9186,2.0,286.6584437,19.98888191,-99999.0,'11111222,11111222,99999999' 
TABS,ioos:station:wmo:42043:1,2009-01-03T01:00:00Z,28.9818,-94.9186,2.0,290.1923108,20.6277483,-99999.0,'11111222,11111222,99999999' 
TABS,ioos:station:wmo:42043:1,2009-01-03T01:30:00Z,28.9818,-94.9186,2.0,294.022741,21.37101776,-99999.0,'11111222,11111222,99999999' 
TABS,ioos:station:wmo:42043:1,2009-01-03T02:00:00Z,28.9818,-94.9186,2.0,293.5388891,20.5826456,-99999.0,'11111222,11111222,99999999' 
TABS,ioos:station:wmo:42043:1,2009-01-03T02:30:00Z,28.9818,-94.9186,2.0,288.2456366,20.05843713,-99999.0,'11111222,11111222,99999999' 
TABS,ioos:station:wmo:42043:1,2009-01-03T03:00:00Z,28.9818,-94.9186,2.0,284.6429818,21.08480258,-99999.0,'11111222,11111222,99999999' 
TABS,ioos:station:wmo:42043:1,2009-01-03T03:30:00Z,28.9818,-94.9186,2.0,284.8669451,19.91669149,-99999.0,'11111222,11111222,99999999' 
TABS,ioos:station:wmo:42043:1,2009-01-03T04:00:00Z,28.9818,-94.9186,2.0,281.6494889,19.21579559,-99999.0,'11111222,11111222,99999999' 
TABS,ioos:station:wmo:42043:1,2009-01-03T04:30:00Z,28.9818,-94.9186,2.0,283.1652026,19.93388321,-99999.0,'11111222,11111222,99999999' 
TABS,ioos:station:wmo:42043:1,2009-01-03T05:00:00Z,28.9818,-94.9186,2.0,274.6442551,20.25649772,-99999.0,'11111222,11111222,99999999' 
TABS,ioos:station:wmo:42043:1,2009-01-03T05:30:00Z,28.9818,-94.9186,2.0,275.1755712,18.84682732,-99999.0,'11111222,11111222,99999999' 
TABS,ioos:station:wmo:42043:1,2009-01-03T06:00:00Z,28.9818,-94.9186,2.0,280.8310036,18.51989471,-99999.0,'11111222,11111222,99999999' 
TABS,ioos:station:wmo:42043:1,2009-01-03T06:30:00Z,28.9818,-94.9186,2.0,280.266261,18.40463257,-99999.0,'11111222,11111222,99999999' 
TABS,ioos:station:wmo:42043:1,2009-01-03T07:00:00Z,28.9818,-94.9186,2.0,279.6748657,17.31626403,-99999.0,'11111222,11111222,99999999' 
TABS,ioos:station:wmo:42043:1,2009-01-03T07:30:00Z,28.9818,-94.9186,2.0,276.4598356,17.51116501,-99999.0,'11111222,11111222,99999999' 
TABS,ioos:station:wmo:42043:1,2009-01-03T08:00:00Z,28.9818,-94.9186,2.0,276.8320329,14.29146948,-99999.0,'11111222,11111222,99999999' 
TABS,ioos:station:wmo:42043:1,2009-01-03T08:30:00Z,28.9818,-94.9186,2.0,286.4865102,16.73813012,-99999.0,'11111222,11111222,99999999' 
TABS,ioos:station:wmo:42043:1,2009-01-03T09:00:00Z,28.9818,-94.9186,2.0,288.1483725,15.1538246,-99999.0,'11111222,11111222,99999999' 
TABS,ioos:station:wmo:42043:1,2009-01-03T09:30:00Z,28.9818,-94.9186,2.0,297.6040725,12.58218582,-99999.0,'11111222,11111222,99999999' 
TABS,ioos:station:wmo:42043:1,2009-01-03T10:00:00Z,28.9818,-94.9186,2.0,295.6025486,13.83874272,-99999.0,'11111222,11111222,99999999' 
TABS,ioos:station:wmo:42043:1,2009-01-03T10:30:00Z,28.9818,-94.9186,2.0,302.3071676,13.90206459,-99999.0,'11111222,11111222,99999999' 
TABS,ioos:station:wmo:42043:1,2009-01-03T11:00:00Z,28.9818,-94.9186,2.0,290.8404325,14.16683451,-99999.0,'11111222,11111222,99999999' 
TABS,ioos:station:wmo:42043:1,2009-01-03T11:30:00Z,28.9818,-94.9186,2.0,295.5679333,11.81717394,-99999.0,'11111222,11111222,99999999' 
TABS,ioos:station:wmo:42043:1,2009-01-03T12:00:00Z,28.9818,-94.9186,2.0,293.4823808,13.8031011,-99999.0,'11111222,11111222,99999999' 
TABS,ioos:station:wmo:42043:1,2009-01-03T12:30:00Z,28.9818,-94.9186,2.0,306.9528967,12.47601298,-99999.0,'11111222,11111222,99999999' 
TABS,ioos:station:wmo:42043:1,2009-01-03T13:00:00Z,28.9818,-94.9186,2.0,296.2506019,13.02305648,-99999.0,'11111222,11111222,99999999' 
TABS,ioos:station:wmo:42043:1,2009-01-03T13:30:00Z,28.9818,-94.9186,2.0,312.3226491,13.47095023,-99999.0,'11111222,11111222,99999999' 
TABS,ioos:station:wmo:42043:1,2009-01-03T14:00:00Z,28.9818,-94.9186,2.0,319.3662597,13.2826541,-99999.0,'11111222,11111222,99999999' 
TABS,ioos:station:wmo:42043:1,2009-01-03T14:30:00Z,28.9818,-94.9186,2.0,335.6909358,7.044600769,-99999.0,'11133222,11111222,99999999' 
TABS,ioos:station:wmo:42043:1,2009-01-03T15:00:00Z,28.9818,-94.9186,2.0,335.7207525,6.055617227,-99999.0,'11133222,11111222,99999999' 
TABS,ioos:station:wmo:42043:1,2009-01-03T15:30:00Z,28.9818,-94.9186,2.0,300.9970715,11.92258361,-99999.0,'11111222,11111222,99999999' 
TABS,ioos:station:wmo:42043:1,2009-01-03T16:00:00Z,28.9818,-94.9186,2.0,308.2926546,10.95737651,-99999.0,'11111222,11111222,99999999' 
TABS,ioos:station:wmo:42043:1,2009-01-03T16:30:00Z,28.9818,-94.9186,2.0,296.56541,14.22139234,-99999.0,'11111222,11111222,99999999' 
TABS,ioos:station:wmo:42043:1,2009-01-03T17:00:00Z,28.9818,-94.9186,2.0,303.4350344,8.711653115,-99999.0,'11133222,11111222,99999999' 
TABS,ioos:station:wmo:42043:1,2009-01-03T17:30:00Z,28.9818,-94.9186,2.0,293.3987138,8.662338022,-99999.0,'11133222,11111222,99999999' 
TABS,ioos:station:wmo:42043:1,2009-01-03T18:00:00Z,28.9818,-94.9186,2.0,282.5247221,13.88029539,-99999.0,'11111222,11111222,99999999' 
TABS,ioos:station:wmo:42043:1,2009-01-03T18:30:00Z,28.9818,-94.9186,2.0,272.7931168,12.31462545,-99999.0,'11111222,11111222,99999999' 
TABS,ioos:station:wmo:42043:1,2009-01-03T19:00:00Z,28.9818,-94.9186,2.0,266.6697681,11.01860245,-99999.0,'11111222,11111222,99999999' 
TABS,ioos:station:wmo:42043:1,2009-01-03T19:30:00Z,28.9818,-94.9186,2.0,267.6264437,13.04118476,-99999.0,'11111222,11111222,99999999' 
TABS,ioos:station:wmo:42043:1,2009-01-03T20:00:00Z,28.9818,-94.9186,2.0,272.1215124,12.69870072,-99999.0,'11111222,11111222,99999999' 
TABS,ioos:station:wmo:42043:1,2009-01-03T20:30:00Z,28.9818,-94.9186,2.0,271.5774338,11.26426651,-99999.0,'11111222,11111222,99999999' 
TABS,ioos:station:wmo:42043:1,2009-01-03T21:00:00Z,28.9818,-94.9186,2.0,268.1795822,10.70540051,-99999.0,'11111222,11111222,99999999' 
TABS,ioos:station:wmo:42043:1,2009-01-03T21:30:00Z,28.9818,-94.9186,2.0,275.2214312,7.802371434,-99999.0,'11133222,11111222,99999999' 
TABS,ioos:station:wmo:42043:1,2009-01-03T22:00:00Z,28.9818,-94.9186,2.0,291.268812,11.57860527,-99999.0,'11111222,11111222,99999999' 
TABS,ioos:station:wmo:42043:1,2009-01-03T22:30:00Z,28.9818,-94.9186,2.0,284.1133496,10.8680311,-99999.0,'11111222,11111222,99999999' 
TABS,ioos:station:wmo:42043:1,2009-01-03T23:00:00Z,28.9818,-94.9186,2.0,276.9324345,9.942680725,-99999.0,'11133222,11111222,99999999' 
TABS,ioos:station:wmo:42043:1,2009-01-03T23:30:00Z,28.9818,-94.9186,2.0,276.8761457,13.1143166,-99999.0,'11111222,11111222,99999999' 
TABS,ioos:station:wmo:42043:1,2009-01-04T00:00:00Z,28.9818,-94.9186,2.0,271.0885265,10.53189916,-99999.0,'11111222,11111222,99999999' 
TABS,ioos:station:wmo:42043:1,2009-01-04T00:30:00Z,28.9818,-94.9186,2.0,271.8340277,11.876081,-99999.0,'11111222,11111222,99999999' 
TABS,ioos:station:wmo:42043:1,2009-01-04T01:00:00Z,28.9818,-94.9186,2.0,281.8409163,11.64783671,-99999.0,'11111222,11111222,99999999' 
TABS,ioos:station:wmo:42043:1,2009-01-04T01:30:00Z,28.9818,-94.9186,2.0,286.7750481,10.91443998,-99999.0,'11111222,11111222,99999999' 
TABS,ioos:station:wmo:42043:1,2009-01-04T02:00:00Z,28.9818,-94.9186,2.0,287.8479734,10.17990668,-99999.0,'11111222,11111222,99999999' 
TABS,ioos:station:wmo:42043:1,2009-01-04T02:30:00Z,28.9818,-94.9186,2.0,286.4356643,10.6032495,-99999.0,'11111222,11111222,99999999' 
TABS,ioos:station:wmo:42043:1,2009-01-04T03:00:00Z,28.9818,-94.9186,2.0,273.7094018,9.429750792,-99999.0,'11133222,11111222,99999999' 
TABS,ioos:station:wmo:42043:1,2009-01-04T03:30:00Z,28.9818,-94.9186,2.0,270.257735,6.680067365,-99999.0,'11133222,11111222,99999999' 
TABS,ioos:station:wmo:42043:1,2009-01-04T04:00:00Z,28.9818,-94.9186,2.0,254.2743537,10.36805189,-99999.0,'11111222,11111222,99999999' 
TABS,ioos:station:wmo:42043:1,2009-01-04T04:30:00Z,28.9818,-94.9186,2.0,248.9194379,14.45752745,-99999.0,'11111222,11111222,99999999' 
TABS,ioos:station:wmo:42043:1,2009-01-04T05:00:00Z,28.9818,-94.9186,2.0,252.1367935,11.08433579,-99999.0,'11111222,11111222,99999999' 
TABS,ioos:station:wmo:42043:1,2009-01-04T05:30:00Z,28.9818,-94.9186,2.0,254.6934759,13.78911165,-99999.0,'11111222,11111222,99999999' 
TABS,ioos:station:wmo:42043:1,2009-01-04T06:00:00Z,28.9818,-94.9186,2.0,277.0636321,16.10219861,-99999.0,'11111222,11111222,99999999' 
TABS,ioos:station:wmo:42043:1,2009-01-04T06:30:00Z,28.9818,-94.9186,2.0,273.2229668,16.36587914,-99999.0,'11111222,11111222,99999999' 
TABS,ioos:station:wmo:42043:1,2009-01-04T07:00:00Z,28.9818,-94.9186,2.0,272.2360526,16.66268286,-99999.0,'11111222,11111222,99999999' 
TABS,ioos:station:wmo:42043:1,2009-01-04T07:30:00Z,28.9818,-94.9186,2.0,267.8596987,15.80101895,-99999.0,'11111222,11111222,99999999' 
TABS,ioos:station:wmo:42043:1,2009-01-04T08:00:00Z,28.9818,-94.9186,2.0,265.8352892,22.30889733,-99999.0,'11111222,11111222,99999999' 
TABS,ioos:station:wmo:42043:1,2009-01-04T08:30:00Z,28.9818,-94.9186,2.0,263.0963022,19.55174161,-99999.0,'11111222,11111222,99999999' 
TABS,ioos:station:wmo:42043:1,2009-01-04T09:00:00Z,28.9818,-94.9186,2.0,270.1627311,21.18008499,-99999.0,'11111222,11111222,99999999' 
TABS,ioos:station:wmo:42043:1,2009-01-04T09:30:00Z,28.9818,-94.9186,2.0,272.6711681,20.6023785,-99999.0,'11111222,11111222,99999999' 
TABS,ioos:station:wmo:42043:1,2009-01-04T10:00:00Z,28.9818,-94.9186,2.0,280.2381299,21.38040224,-99999.0,'11111222,11111222,99999999' 
TABS,ioos:station:wmo:42043:1,2009-01-04T10:30:00Z,28.9818,-94.9186,2.0,289.6313902,21.9668045,-99999.0,'11111222,11111222,99999999' 
TABS,ioos:station:wmo:42043:1,2009-01-04T11:00:00Z,28.9818,-94.9186,2.0,297.2633291,20.19319192,-99999.0,'11111222,11111222,99999999' 
TABS,ioos:station:wmo:42043:1,2009-01-04T11:30:00Z,28.9818,-94.9186,2.0,298.9935888,19.95022306,-99999.0,'11111222,11111222,99999999' 
TABS,ioos:station:wmo:42043:1,2009-01-04T12:00:00Z,28.9818,-94.9186,2.0,308.3291226,18.38195855,-99999.0,'11111222,11111222,99999999' 
TABS,ioos:station:wmo:42043:1,2009-01-04T12:30:00Z,28.9818,-94.9186,2.0,307.6442749,17.61760767,-99999.0,'11111222,11111222,99999999' 
TABS,ioos:station:wmo:42043:1,2009-01-04T13:00:00Z,28.9818,-94.9186,2.0,304.6570711,17.91936662,-99999.0,'11111222,11111222,99999999' 
TABS,ioos:station:wmo:42043:1,2009-01-04T13:30:00Z,28.9818,-94.9186,2.0,313.5340662,16.30414978,-99999.0,'11111222,11111222,99999999' 
TABS,ioos:station:wmo:42043:1,2009-01-04T14:00:00Z,28.9818,-94.9186,2.0,316.3687323,17.17345044,-99999.0,'11111222,11111222,99999999' 
TABS,ioos:station:wmo:42043:1,2009-01-04T14:30:00Z,28.9818,-94.9186,2.0,322.1286183,15.21432549,-99999.0,'11111222,11111222,99999999' 
TABS,ioos:station:wmo:42043:1,2009-01-04T15:00:00Z,28.9818,-94.9186,2.0,313.6479784,14.98069424,-99999.0,'11111222,11111222,99999999' 
TABS,ioos:station:wmo:42043:1,2009-01-04T15:30:00Z,28.9818,-94.9186,2.0,313.6088877,17.18068974,-99999.0,'11111222,11111222,99999999' 
TABS,ioos:station:wmo:42043:1,2009-01-04T16:00:00Z,28.9818,-94.9186,2.0,311.5042838,17.62561772,-99999.0,'11111222,11111222,99999999' 